Regional Weather Roundup
Issued by NWS

Home | Current Version | Previous Version | Text Only | Print | Product List | Glossary On
Versions: 1 2 3 4 5 6 7 8 9 10 11 12 13 14 15 16 17 18 19 20 21 22 23 24 25 26 27 28 29 30 31 32 33 34 35 36 37 38 39 40 41 42 43 44 45 46 47 48 49 50
000
ASUS43 KBIS 050801
RWRND

NORTH DAKOTA REGIONAL WEATHER ROUNDUP
NATIONAL WEATHER SERVICE BISMARCK ND
300 AM CDT TUE MAY 05 2015

NOTE: "FAIR" INDICATES FEW OR NO CLOUDS BELOW 12,000 FEET WITH NO
SIGNIFICANT WEATHER AND/OR OBSTRUCTIONS TO VISIBILITY.


NDZ001>003-009>011-017-050900-
NORTHWEST NORTH DAKOTA

CITY           SKY/WX    TMP DP  RH WIND       PRES   REMARKS
WILLISTON      CLEAR     51  29  42 S6        29.99F
MINOT          CLOUDY    54  31  41 SE9       30.07F
MINOT AFB      CLOUDY    51  36  56 S6        30.06F
$$

NDZ018>021-031>035-040>046-050900-
SOUTHWEST NORTH DAKOTA

CITY           SKY/WX    TMP DP  RH WIND       PRES   REMARKS
BISMARCK       CLOUDY    53  30  41 SE6       30.10F
DICKINSON      CLEAR     42  28  57 SE10      30.02F
GARRISON         N/A     52  34  50 SE6       30.08F
HETTINGER ARPT CLOUDY    50  28  42 SE8       30.06F
$$

NDZ004>008-012>016-024-026-027-054-050900-
NORTHEAST NORTH DAKOTA

CITY           SKY/WX    TMP DP  RH WIND       PRES   REMARKS
GRAND FORKS    CLEAR     44  25  47 S8        30.17S
GRND FRKS AFB  CLEAR     42  24  47 S7        30.17S
DEVILS LAKE    CLEAR     48  34  57 SE8       30.14S
$$

NDZ022-023-025-028>030-036>039-047>053-050900-
SOUTHEAST NORTH DAKOTA

CITY           SKY/WX    TMP DP  RH WIND       PRES   REMARKS
FARGO          CLEAR     50  27  40 SE7       30.18F
JAMESTOWN      PTCLDY    47  27  45 SE8       30.15F
$$



USA.gov is the U.S. government's official web portal to all federal, state and local government web resources and services.